Weather past 2 weeks in Bantam, Cocos Islands

Now
79 °F

Clear.


Feels Like: 82 °F
Forecast: 80 / 88 °F
Wind: 3 mph from North

Location: Cocos Island Airport

Current Time: Feb 2, 2015 at 12:45:11 AM

Latest Report: Feb 2, 2015 at 12:00 AM


Visibility: N/A

Pressure: 29.80 "Hg

Humidity: 89%

Dew point: 75 °F

Location of BantamLocation

Historic Weather in Bantam — Graph

°F

Bantam temperature yesterday

Maximum temperature yesterday: 82 °F (at 7:30 AM)
Minimum temperature yesterday: 77 °F (at 9:30 AM)
Average temperature yesterday: 80 °F

Past Weeks' High & Low Weather Summary

 TemperatureHumidityPressure
High88 °F (Jan 22, 11:30 AM)100% (Feb 1, 10:30 AM)29.95 "Hg (Feb 1, 10:30 AM)
Low75 °F (Jan 20, 5:00 AM)58% (Jan 18, 10:30 AM)29.74 "Hg (Jan 18, 4:00 PM)
Average82 °F78%29.84 "Hg
* Reported Jan 17 11:30 PM — Feb 1 11:30 PM, Bantam, Weather by CustomWeather, © 2014

Note: Actual official high and low records may vary slightly from our data, if they occured in-between our weather recording intervals... More about our weather records

Advertising

Bantam weather history for previous 24 hours

 ConditionsComfort  
Time TempWeatherWind HumidityBarometerVisibility
11:30 PM
Feb 1
79 °FClear.1 mph89%29.83 "HgN/A
11:00 PM79 °FSprinkles. Overcast.3 mph89%29.83 "HgN/A
10:30 PM79 °FClear.3 mph89%29.83 "HgN/A
10:00 PM79 °FClear.1 mph89%29.83 "HgN/A
9:30 PM79 °FClear.No wind89%29.83 "HgN/A
9:00 PM79 °FClear.1 mph89%29.83 "HgN/A
8:30 PM79 °FClear.3 mph89%29.80 "HgN/A
8:00 PM79 °FClear.No wind89%29.80 "HgN/A
7:30 PM79 °FSprinkles. Broken clouds.No wind89%29.80 "HgN/A
7:00 PM79 °FSprinkles. Cloudy.No wind89%29.80 "HgN/A
6:30 PM79 °FSprinkles. Cloudy.1 mph84%29.77 "HgN/A
6:00 PM79 °FSunny.No wind89%29.77 "HgN/A
5:30 PM81 °FSunny.6 mph79%29.77 "HgN/A
5:00 PM81 °FScattered clouds.7 mph84%29.77 "HgN/A
4:30 PM81 °FMore clouds than sun.6 mph84%29.74 "HgN/A
4:00 PM81 °FLight rain. Overcast.6 mph84%29.77 "HgN/A
3:30 PM81 °FLight rain. Overcast.8 mph84%29.77 "HgN/A
3:00 PM81 °FScattered showers. Partly sunny.13 mph84%29.77 "HgN/A
2:30 PM81 °FScattered showers. Partly sunny.13 mph84%29.80 "HgN/A
2:00 PM79 °FLight rain. Broken clouds.15 mph94%29.80 "HgN/A
1:30 PM79 °FLight rain. Broken clouds.14 mph89%29.80 "Hg6 mi
1:00 PM79 °FRain. Partly sunny.15 mph89%29.80 "Hg4 mi
12:30 PM79 °FSprinkles. Broken clouds.16 mph89%29.83 "Hg4 mi
11:30 AM82 °FScattered showers. Broken clouds.15 mph84%29.83 "Hg6 mi
11:00 AM81 °FScattered showers. Partly sunny.10 mph89%29.83 "HgN/A
10:30 AM77 °FRain. Partly sunny.8 mph100%29.83 "Hg2 mi
9:30 AM77 °FRain showers. Broken clouds.10 mph94%29.83 "Hg1 mi
8:30 AM82 °FScattered showers. Broken clouds.10 mph84%29.83 "Hg6 mi
8:00 AM82 °FSprinkles. Broken clouds.10 mph84%29.83 "HgN/A
7:30 AM82 °FScattered showers. Scattered clouds.9 mph84%29.80 "HgN/A
7:00 AM81 °FScattered showers. Broken clouds.12 mph84%29.80 "HgN/A
6:30 AM79 °FLight rain. Passing clouds.5 mph89%29.80 "HgN/A
6:00 AM79 °FRain showers. Partly cloudy.12 mph89%29.80 "Hg4 mi
5:30 AM81 °FScattered showers. Passing clouds.9 mph84%29.77 "HgN/A
5:00 AM81 °FClear.9 mph84%29.77 "HgN/A
4:30 AM81 °FPassing clouds.9 mph84%29.77 "HgN/A
4:00 AM81 °FPassing clouds.8 mph84%29.77 "HgN/A
3:30 AM81 °FPassing clouds.7 mph84%29.77 "HgN/A
3:00 AM81 °FClear.8 mph89%29.77 "HgN/A
2:30 AM81 °FClear.8 mph89%29.77 "HgN/A
2:00 AM81 °FClear.8 mph84%29.77 "HgN/A
1:30 AM81 °FPassing clouds.8 mph84%29.80 "HgN/A
1:00 AM81 °FPartly cloudy.8 mph84%29.80 "HgN/A
12:30 AM81 °FClear.10 mph84%29.80 "HgN/A
12:00 AM81 °FClear.12 mph84%29.83 "HgN/A
Weather by CustomWeather, © 2014

See weather overviewHow to use our weather pages